When you browse on this site, cookies collect data to enhance your experience and personalize the content and advertising you see.
Visit our Privacy Policy to learn more. By continuing to use the site, you agree to this use of cookies and data.

Hourly Weather Sinkevichi

Today, 9 August, Sunday

Time Temperature Precipitation Wind Pressure Humidity
00:00 +20°C° 0 mm 1 mps 753 mmHg 92%
01:00 +20°C° 0 mm 1 mps 753 mmHg 92%
02:00 +19°C° 0 mm 1 mps 753 mmHg 93%
03:00 +19°C° 0 mm 1 mps 753 mmHg 93%
04:00 +19°C° 0 mm 1 mps 753 mmHg 94%
05:00 +18°C° 0 mm 1 mps 753 mmHg 94%
06:00 +20°C° 0 mm 1 mps 753 mmHg 91%
07:00 +21°C° 0 mm 1 mps 753 mmHg 88%
08:00 +22°C° 0 mm 1 mps 753 mmHg 84%
09:00 +24°C° 0.5 mm 1 mps 753 mmHg 80%
10:00 +25°C° 0.5 mm 1 mps 753 mmHg 75%
11:00 +26°C° 0.5 mm 2 mps 753 mmHg 70%
12:00 +26°C° 0.2 mm 2 mps 752 mmHg 67%
13:00 +27°C° 0.2 mm 2 mps 752 mmHg 64%
14:00 +27°C° 0.2 mm 2 mps 752 mmHg 61%
15:00 +27°C° 0.2 mm 2 mps 752 mmHg 63%
16:00 +27°C° 0.2 mm 2 mps 751 mmHg 64%
17:00 +27°C° 0.2 mm 1 mps 751 mmHg 66%
18:00 +25°C° 0.2 mm 2 mps 751 mmHg 73%
19:00 +23°C° 0.2 mm 2 mps 751 mmHg 79%
20:00 +20°C° 0.2 mm 2 mps 751 mmHg 86%
21:00 +20°C° 0 mm 2 mps 751 mmHg 88%
22:00 +19°C° 0 mm 2 mps 751 mmHg 90%
23:00 +18°C° 0 mm 2 mps 751 mmHg 93%

Tomorrow, 10 August, Monday

Time Temperature Precipitation Wind Pressure Humidity
00:00 +18°C° 0 mm 2 mps 751 mmHg 93%
01:00 +19°C° 0 mm 1 mps 751 mmHg 94%
02:00 +18°C° 0 mm 1 mps 751 mmHg 94%
03:00 +18°C° 0 mm 1 mps 751 mmHg 95%
04:00 +18°C° 0 mm 1 mps 751 mmHg 95%
05:00 +18°C° 0 mm 1 mps 751 mmHg 95%
06:00 +19°C° 0 mm 1 mps 751 mmHg 91%
07:00 +20°C° 0 mm 2 mps 751 mmHg 87%
08:00 +21°C° 0 mm 2 mps 751 mmHg 83%
09:00 +24°C° 0 mm 2 mps 751 mmHg 76%
10:00 +25°C° 0 mm 2 mps 751 mmHg 69%
11:00 +26°C° 0 mm 2 mps 751 mmHg 62%
12:00 +27°C° 0.2 mm 2 mps 751 mmHg 60%
13:00 +27°C° 0.2 mm 2 mps 751 mmHg 57%
14:00 +28°C° 0.2 mm 2 mps 750 mmHg 55%
15:00 +28°C° 0.1 mm 2 mps 750 mmHg 57%
16:00 +28°C° 0.1 mm 2 mps 750 mmHg 59%
17:00 +27°C° 0.1 mm 2 mps 750 mmHg 61%
18:00 +26°C° 0.3 mm 2 mps 750 mmHg 68%
19:00 +24°C° 0.3 mm 2 mps 750 mmHg 75%
20:00 +22°C° 0.3 mm 1 mps 750 mmHg 82%
21:00 +21°C° 0.2 mm 1 mps 750 mmHg 84%
22:00 +21°C° 0.2 mm 1 mps 750 mmHg 86%
23:00 +20°C° 0.2 mm 1 mps 751 mmHg 88%

Day after tomorrow, 11 August, Tuesday

Time Temperature Precipitation Wind Pressure Humidity
00:00 +20°C° 0 mm 1 mps 751 mmHg 89%
01:00 +19°C° 0 mm 1 mps 750 mmHg 90%
02:00 +19°C° 0 mm 1 mps 750 mmHg 92%
03:00 +18°C° 0 mm 1 mps 750 mmHg 92%
04:00 +18°C° 0 mm 1 mps 751 mmHg 93%
05:00 +18°C° 0 mm 1 mps 751 mmHg 94%
06:00 +18°C° 0 mm 2 mps 751 mmHg 90%
07:00 +19°C° 0 mm 2 mps 751 mmHg 86%
08:00 +21°C° 0 mm 2 mps 751 mmHg 83%
09:00 +23°C° 0.6 mm 2 mps 751 mmHg 80%
10:00 +24°C° 0.6 mm 3 mps 751 mmHg 76%
11:00 +25°C° 0.6 mm 3 mps 751 mmHg 73%
12:00 +25°C° 0.6 mm 3 mps 751 mmHg 71%
13:00 +26°C° 0.6 mm 4 mps 751 mmHg 68%
14:00 +26°C° 0.6 mm 4 mps 751 mmHg 65%
15:00 +26°C° 0 mm 4 mps 751 mmHg 65%
16:00 +25°C° 0 mm 4 mps 751 mmHg 65%
17:00 +25°C° 0 mm 4 mps 751 mmHg 65%
18:00 +22°C° 0 mm 4 mps 751 mmHg 70%
19:00 +20°C° 0 mm 3 mps 751 mmHg 74%
20:00 +18°C° 0 mm 3 mps 752 mmHg 78%
21:00 +17°C° 0 mm 3 mps 752 mmHg 80%
22:00 +16°C° 0 mm 3 mps 752 mmHg 83%
23:00 +14°C° 0 mm 3 mps 753 mmHg 85%

12 August, Wednesday

Time Temperature Precipitation Wind Pressure Humidity
00:00 +13°C° 0 mm 3 mps 753 mmHg 87%
01:00 +13°C° 0 mm 3 mps 753 mmHg 90%
02:00 +13°C° 0 mm 2 mps 753 mmHg 93%
03:00 +12°C° 0 mm 2 mps 753 mmHg 93%
04:00 +12°C° 0 mm 2 mps 753 mmHg 94%
05:00 +10°C° 0 mm 2 mps 754 mmHg 94%
06:00 +12°C° 0 mm 3 mps 754 mmHg 87%
07:00 +13°C° 0 mm 3 mps 754 mmHg 79%
08:00 +16°C° 0 mm 3 mps 754 mmHg 72%
09:00 +17°C° 0 mm 4 mps 754 mmHg 67%
10:00 +18°C° 0 mm 4 mps 754 mmHg 62%
11:00 +19°C° 0 mm 4 mps 754 mmHg 57%
12:00 +19°C° 0 mm 4 mps 754 mmHg 57%
13:00 +20°C° 0 mm 3 mps 754 mmHg 57%
14:00 +20°C° 0 mm 3 mps 754 mmHg 56%
15:00 +20°C° 0 mm 3 mps 754 mmHg 58%
16:00 +20°C° 0 mm 3 mps 754 mmHg 59%
17:00 +20°C° 0 mm 3 mps 754 mmHg 61%
18:00 +18°C° 0 mm 3 mps 754 mmHg 67%
19:00 +17°C° 0 mm 2 mps 754 mmHg 74%
20:00 +15°C° 0 mm 2 mps 754 mmHg 81%
21:00 +14°C° 0 mm 2 mps 754 mmHg 83%
22:00 +13°C° 0 mm 1 mps 754 mmHg 86%
23:00 +13°C° 0 mm 1 mps 754 mmHg 89%

13 August, Thursday

Time Temperature Precipitation Wind Pressure Humidity
00:00 +12°C° 0 mm 1 mps 754 mmHg 89%
01:00 +12°C° 0 mm 1 mps 754 mmHg 90%
02:00 +12°C° 0 mm 1 mps 754 mmHg 91%
03:00 +11°C° 0 mm 1 mps 753 mmHg 91%
04:00 +11°C° 0 mm 1 mps 753 mmHg 92%
05:00 +11°C° 0 mm 1 mps 753 mmHg 92%
06:00 +13°C° 0 mm 1 mps 753 mmHg 86%
07:00 +14°C° 0 mm 1 mps 753 mmHg 80%
08:00 +16°C° 0 mm 1 mps 753 mmHg 73%
09:00 +18°C° 0 mm 1 mps 753 mmHg 68%
10:00 +20°C° 0 mm 1 mps 753 mmHg 62%
11:00 +20°C° 0 mm 2 mps 753 mmHg 56%
12:00 +21°C° 0 mm 2 mps 752 mmHg 54%
13:00 +21°C° 0 mm 2 mps 752 mmHg 52%
14:00 +23°C° 0 mm 2 mps 752 mmHg 50%
15:00 +23°C° 0 mm 2 mps 752 mmHg 53%
16:00 +23°C° 0 mm 2 mps 751 mmHg 55%
17:00 +23°C° 0 mm 2 mps 751 mmHg 58%
18:00 +20°C° 0 mm 2 mps 751 mmHg 64%
19:00 +19°C° 0 mm 1 mps 751 mmHg 71%
20:00 +18°C° 0 mm 1 mps 751 mmHg 77%
21:00 +16°C° 0 mm 1 mps 751 mmHg 77%
22:00 +16°C° 0 mm 1 mps 751 mmHg 78%
23:00 +16°C° 0 mm 1 mps 751 mmHg 78%

14 August, Friday

Time Temperature Precipitation Wind Pressure Humidity
00:00 +15°C° 0 mm 1 mps 751 mmHg 81%
01:00 +15°C° 0 mm 1 mps 751 mmHg 83%
02:00 +14°C° 0 mm 1 mps 750 mmHg 86%
03:00 +14°C° 0 mm 2 mps 750 mmHg 87%
04:00 +14°C° 0 mm 2 mps 750 mmHg 87%
05:00 +13°C° 0 mm 2 mps 750 mmHg 88%
06:00 +15°C° 0 mm 2 mps 750 mmHg 84%
07:00 +17°C° 0 mm 2 mps 750 mmHg 79%
08:00 +18°C° 0 mm 2 mps 750 mmHg 75%
09:00 +20°C° 0 mm 2 mps 750 mmHg 69%
10:00 +21°C° 0 mm 2 mps 750 mmHg 64%
11:00 +24°C° 0 mm 2 mps 750 mmHg 59%
12:00 +24°C° 0 mm 2 mps 750 mmHg 59%
13:00 +24°C° 0 mm 2 mps 750 mmHg 59%
14:00 +25°C° 0 mm 2 mps 750 mmHg 58%
15:00 +24°C° 0.2 mm 2 mps 750 mmHg 63%
16:00 +24°C° 0.2 mm 2 mps 750 mmHg 67%
17:00 +23°C° 0.2 mm 2 mps 750 mmHg 71%
18:00 +21°C° 0.1 mm 2 mps 750 mmHg 76%
19:00 +19°C° 0.1 mm 2 mps 750 mmHg 81%
20:00 +19°C° 0.1 mm 1 mps 750 mmHg 86%
21:00 +18°C° 0 mm 1 mps 750 mmHg 87%
22:00 +16°C° 0 mm 1 mps 750 mmHg 89%
23:00 +15°C° 0 mm 1 mps 751 mmHg 90%
Show more